COSMOS 911

Satellite information

Favourite Embed

Satellite Type and Status

PAYLOADIN ORBIT

Key statistics

Satellite COSMOS 911 at a glance.

Uptime

17575

Days in orbit

Revolutions

≈ 13.8

Per day

Orbit

LEO

Low Earth Orbit

Inclination

82.9

Latest

Satellite identification and parameters

Extended collection of information and parameters for COSMOS 911.

Object identification

Identified? True

Debris? False

Object name: COSMOS 911

International designator: 1977-039A

Object number (NORAD): 10019

Object ID (CCSDS): 10019

Country: COMMONWEALTH OF INDEPENDENT STATES (CIS)

Current information (Y/N): Y

RCS size: LARGE

Orbital parameters

Period: 104.697 minutes

Inclination: 82.947 deg

SMA: 7358.395 km

Apoapsis: 997.594 km

Periapsis: 962.927 km

RAAN: 32.7724 deg

Eccentricy: 0.0023556

Argument of periapsis: 225.9276 deg

Mean anomaly: 200.7049 deg

Mean motion: 13.75397068 rev/day

Mean motion (dot): 0.00000048 rev/day2

B* drag term: 0.00003442 1/REarth

Two-line elements (TLE)

Creation date: July 6, 2025, 10:56 p.m.

Reference frame: TEME

Reference center: EARTH

Epoch: July 6, 2025, 4:15 p.m. UTC

TLE line 0: 0 COSMOS 911

TLE line 1: 1 10019U 77039A 25187.67728207 .00000048 00000-0 34420-4 0 9998

TLE line 2: 2 10019 82.9470 32.7724 0023556 225.9276 200.7049 13.75397068414686

Live tracking on map

Real-time ground track for satellite COSMOS 911.

In-orbit conjunctions

A list of the most updated potential collisions computed for object COSMOS 911.

Target Orbit TCA Probability of collision Miss distance Type
COSMOS 1275 DEB LEO 2025-03-30 12:11:33 0.0001111284 768.0 (m) DEBRIS
NIMBUS 2 DEB SSO 2025-03-22 20:39:12 0.0001745892 814.0 (m) DEBRIS
CZ-6A DEB LEO 2024-11-06 15:37:01 0.0002557726 809.0 (m) DEBRIS

Associated space launch

The Sfera or Geoid series were the first soviet geodetic satellites to improve the accuracy of maps. The development of the satellites started in 1965 at NPO-PM.

COSMOS 911 was lifted into orbit during the mission ‘Kosmos-3M | Sfera 16’, on board a Kosmos-3M space rocket.

The launch took place on May 25, 1977, 11 a.m. from 132/2.

For more information about the launch, click the button.

Launch to space Kosmos-3M | Sfera 16
Kosmos-3M | Sfera 16

Agency: N/A

Status: Launch Successful

Launch date: May 25, 1977, 11 a.m. UTC

Rocket: Kosmos-3M

Launch pad: 132/2

Location: Plesetsk Cosmodrome, Russian Federation

...

Latest news about this satellite

There are no fresh news available about this satellite. Check back as we update our databases every day.


Newsletter sign-up

Weekly statistics, charts and insights to help you stay on top of the space industry.